Location: Unspecified
(0.0000°N, 0.0000°E)
Time: 13:42:39
(UTC+00:00)

N. Korean satellite - Pass Details

Date: 27 November 2021
Orbit: 446 x 495 km, 97.3° (Epoch: 07 December)

Event Time Altitude Azimuth Distance (km) Brightness Sun altitude
Rises 05:14:21 0° 355° (N) 2,428 9.9 -7.8°
Reaches altitude 10° 05:16:30 10° 345° (NNW) 1,561 8.8 -7.3°
Maximum altitude 05:19:29 31° 281° (W) 809 7.2 -6.6°
Drops below altitude 10° 05:22:31 10° 217° (SW) 1,576 9.0 -5.8°
Sets 05:24:42 0° 206° (SSW) 2,456 10.1 -5.3°
